Regional Weather Roundup
Issued by NWS Charleston, SC

Current Version | Previous Version | Text Only | Print | Product List | Glossary Off
Versions: 1 2 3 4 5 6 7 8 9 10 11 12 13 14 15 16 17 18 19 20 21 22 23 24 25 26 27 28 29 30 31 32 33 34 35 36 37 38 39 40 41 42 43 44 45 46 47 48 49 50

000
ASUS42 KCHS 242328
RWRCHS

REGIONAL WEATHER ROUNDUP
NATIONAL WEATHER SERVICE CHARLESTON SC
700 PM EDT SUN JUL 24 2016

NOTE: "FAIR" INDICATES FEW OR NO CLOUDS BELOW 12,000 FEET WITH NO
SIGNIFICANT WEATHER AND/OR OBSTRUCTIONS TO VISIBILITY.

NOT ALL STATIONS ARE QUALITY CONTROLLED. USE DATA WITH CAUTION...
ESPECIALLY DEWPOINT OBSERVATIONS.

SCZ027-030-031-034>040-042>050-250000-
...SOUTHEAST SOUTH CAROLINA...

CITY           SKY/WX    TMP DP  RH WIND       PRES   REMARKS
N CHARLESTON   CLOUDY    86  76  71 S7        30.01F HX  96
WATERFRONT PRK   N/A     86  78  77 S8        30.00S HX  98
MOUNT PLEASANT FAIR      88  77  70 S7        30.01S HX 100
JOHNS ISLAND   FAIR      86  77  74 S9        30.02S HX  97
PINOPOLIS        N/A     88  72  58 CALM      29.94S HX  94
MONCKS CORNER  FAIR      82  70  65 S5        30.01S
SUMMERVILLE    NOT AVBL
BEAUFORT MCAS  SUNNY     89  74  60 S6        30.01R HX  98
BEAUFORT ARPT  FAIR      88  73  62 S6        30.01R HX  96
HILTON HEAD IS SUNNY     91  75  59 SE9       30.02S HX 102
WALTERBORO     CLOUDY    91  77  62 S8        30.01S HX 105
ALLENDALE      FAIR      88  72  58 S6        29.99R HX  94

...SOUTHERN MIDLANDS AND PEE DEE...

CITY           SKY/WX    TMP DP  RH WIND       PRES   REMARKS
GEORGETOWN     FAIR      84  77  79 S7        30.02S HX  94
KINGSTREE      FAIR      88  73  62 SE8       30.00S HX  96
ORANGEBURG     MOSUNNY   91  74  57 S12       29.99S HX 100
BARNWELL       NOT AVBL
AIKEN          FAIR      79  72  78 CALM      30.03F
MANNING        FAIR      88  73  62 S6        30.00S HX  96
COLUMBIA       PTSUNNY   96  67  38 S7        29.97S HX 100
SUMTER         SUNNY     91  74  57 S10       29.97S HAZE    HX 101
FLORENCE       SUNNY     91  76  61 S13       29.99S HX 103
MYRTLE BEACH   SUNNY     88  73  62 SW10      30.02F HX  96
N MYRTLE BEACH SUNNY     86  79  79 S12       30.01S HX  99

$$

GAZ063-065-086>088-099>101-113>116-118-119-134>141-150-250000-
...SOUTHEAST GEORGIA...

CITY           SKY/WX    TMP DP  RH WIND       PRES   REMARKS
SAVANNAH ARPT  MOSUNNY   89  73  59 S12       30.00S HX  97
HUNTER AAF     SUNNY     89  76  65 S10       29.98S HX 100
FORT STEWART   SUNNY     78  75  89 CALM      29.99S
STATESBORO     SUNNY     90  74  60 S8        30.01R HX  99
SYLVANIA       NOT AVBL
CLAXTON        FAIR      85  73  68 CALM      30.00S HX  92

...CSRA...CENTRAL AND FAR SOUTHEAST GEORGIA...

CITY           SKY/WX    TMP DP  RH WIND       PRES   REMARKS
THOMSON        NOT AVBL
AUGUSTA-BUSH   CLOUDY    93  70  46 SE6       29.96F HX  99
AUGUSTA-DANIEL PTSUNNY   95  69  42 S8        29.99S HX 100
SWAINSBORO     MOCLDY    88  70  55 W7        30.00R HX  92
VIDALIA        PTSUNNY   88  70  55 SE6       30.00R HX  92
EASTMAN        FAIR      94  60  32 CALM      30.00S HX  94
HAZLEHURST     FAIR      90  71  53 SE7       29.99R HX  96
ALMA           PTSUNNY   82  72  71 SE9       30.00F
WAYCROSS       CLOUDY    83  78  85 SE3       30.00F HX  92
JESUP          FAIR      84  79  84 CALM      30.01S HX  96
BAXLEY         FAIR      84  73  70 SE7       30.01R HX  91
BRUNSWICK      SUNNY     90  75  62 SE9       30.02S HX 100
SAINT SIMONS   SUNNY     88  74  63 SE10      30.01R HX  96

$$

SCZ027-028-034-036>038-045-046-048>050-GAZ119-141-250000-
...LAKE AND SUPPLEMENTAL COASTAL OBSERVATIONS...

STATION/POSITION TIME  TEMP    WIND        PRES    WAVE   SWELL
                       AIR SEA DIR/SP/G            HT/PER HT/PER/DIR
                 (UTC) (F)     (DEG/KT/KT) (MB)    (FT/S) (FT/S/D)
WINYAH BAY       2245   87     200/  7     1016.0S
LAKE MURRAY      2200   95     170/  4/  5 1014.6S
ACE BASIN NERRS  2200   89     160/  2     1016.0S
FORT PULASKI     2300   87 88                N/A
SAPELO ISLAND    2300   90     140/  9     1016.0S

$$

ANZ835-935-AMZ111-154-330-350-352-354-370-450-454-472-250000-
...C-MAN AND BUOY OBSERVATIONS...

STATION/POSITION TIME  TEMP    WIND        PRES    WAVE   SWELL
                       AIR SEA DIR/SP/G            HT/PER HT/PER/DIR
                 (UTC) (F)     (DEG/KT/KT) (MB)    (FT/S) (FT/S/D)
BUOY 41004       2250   85 86  170/  8/ 10 1016.2F   2/ 9   2/130/ 9
BUOY 41008       2250   85 87  140/ 14/ 14 1016.4S   2/ 8   2/100/ 8
FOLLY BEACH CMAN 2300   85     180/ 11/ 12 1016.7R
CAPERS NEARSHORE 2308   85 84  200/ 12/ 14 1016.3F
FRIPP NEARSHORE  2308   86 87  180/ 12/ 16 1015.8F


STATION/POSITION TIME  TEMP    WIND        PRES    WAVE   SWELL
                       AIR SEA DIR/SP/G            HT/PER HT/PER/DIR
                 (UTC) (F)     (DEG/KT/KT) (MB)    (FT/S) (FT/S/D)
5E ST. MARYS GA  2301      87                N/A     2/ 8
FRYING PAN BUOY  2300   85 86  200/ 10/ 12 1016.8R
BUOY 41025       2250   85 85  230/ 12/ 14 1016.6    3/ 9   2/130/ 9
CAPE LOOKOUT NC  2300   85     210/  9/ 12 1016.4R
BUOY 41002       2250   84 86  170/  4/  6 1018.0S   2/ 8   2/100/ 8
BUOY 41010       2220   85 88  140/  6/  8 1017.8F
ST AUGUSTINE FL  2300   84 88  130/ 14/ 15 1017.7F


$$




USA.gov is the U.S. government's official web portal to all federal, state and local government web resources and services.